OBJECT_NAME,OBJECT_ID,EPOCH,MEAN_MOTION,ECCENTRICITY,INCLINATION,RA_OF_ASC_NODE,ARG_OF_PERICENTER,MEAN_ANOMALY,EPHEMERIS_TYPE,CLASSIFICATION_TYPE,NORAD_CAT_ID,ELEMENT_SET_NO,REV_AT_EPOCH,BSTAR,MEAN_MOTION_DOT,MEAN_MOTION_DDOT GPS BIIR-5 (PRN 22),2000-040A,2026-09-12T02:33:38.085120,2.00558320,.01183391,54.8394,211.7123,303.7653,98.8084,0,U,26407,999,19169,0,-.6E-7,0 GPS BIIR-8 (PRN 16),2003-005A,2026-09-11T14:28:20.052768,2.00555870,.01502251,54.8693,211.5378,53.5986,121.3720,0,U,27663,999,17304,0,-.1E-6,0 GPS BIIR-11 (PRN 19),2004-009A,2026-09-10T21:31:57.660096,2.00573795,.0117973,54.7639,272.2167,176.3888,2.1213,0,U,28190,999,16466,0,-.11E-6,0 GPS BIIR-13 (PRN 02),2004-045A,2026-09-11T03:25:59.480256,2.00559594,.0172011,55.0798,321.4298,318.4975,101.9612,0,U,28474,999,16015,0,-.79E-6,0 GPS BIIRM-1 (PRN 17),2005-038A,2026-09-11T16:30:33.697728,2.00559724,.01287558,54.8134,269.6790,297.4628,121.8822,0,U,28874,999,15357,0,-.15E-6,0 GPS BIIRM-2 (PRN 31),2006-042A,2026-09-11T11:59:38.749056,2.00565341,.01087827,54.7152,147.9105,57.0520,126.5252,0,U,29486,999,14612,0,.13E-6,0 GPS BIIRM-3 (PRN 12),2006-052A,2026-09-12T04:08:01.008960,2.00562877,.00854041,54.9240,210.5606,91.1350,269.8072,0,U,29601,999,14515,0,-.5E-7,0 GPS BIIRM-4 (PRN 15),2007-047A,2026-09-11T23:33:51.141888,2.00551515,.0169011,54.1635,76.4901,89.4051,272.5828,0,U,32260,999,13855,0,-.14E-6,0 GPS BIIRM-5 (PRN 29),2007-062A,2026-09-12T07:24:22.568256,2.00564843,.0036015,54.9678,270.6430,170.0830,195.9120,0,U,32384,999,13726,0,-.18E-6,0 GPS BIIRM-6 (PRN 07),2008-012A,2026-09-11T21:21:33.786432,2.00552428,.0211407,54.5035,146.4598,248.5370,109.2661,0,U,32711,999,13549,0,.14E-6,0 GPS BIIRM-8 (PRN 05),2009-043A,2026-09-11T09:28:09.647904,2.00577039,.00515989,56.2613,24.0728,86.0301,286.2006,0,U,35752,999,12509,0,-.96E-6,0 GPS BIIF-1 (PRN 25),2010-022A,2026-09-11T00:00:00.000000,2.00566725,.0128905,54.2612,205.1080,66.3945,140.7715,0,U,36585,999,11931,0,-.16E-6,0 GPS BIIF-3 (PRN 24),2012-053A,2026-09-11T01:42:27.551808,2.00556923,.01854514,53.5962,140.0783,67.3330,294.6954,0,U,38833,999,10116,0,.14E-6,0 GPS BIIF-4 (PRN 27),2013-023A,2026-09-10T22:31:43.991040,2.00563471,.0142242,54.4436,265.4738,51.1420,310.1467,0,U,39166,999,9760,0,-.8E-7,0 GPS BIIF-5 (PRN 30),2014-008A,2026-09-11T22:30:05.178816,2.00565427,.00835894,53.6623,145.7793,231.5683,127.7499,0,U,39533,999,9142,0,.13E-6,0 GPS BIIF-6 (PRN 06),2014-026A,2026-09-12T05:11:38.456448,2.00554703,.00392931,56.4493,328.1268,324.1701,35.6287,0,U,39741,999,9028,0,-.9E-6,0 GPS BIIF-7 (PRN 09),2014-045A,2026-09-11T19:22:48.412128,2.00564033,.00363455,55.4149,85.0144,119.8600,240.5660,0,U,40105,999,8781,0,.3E-7,0 GPS BIIF-8 (PRN 03),2014-068A,2026-09-11T16:16:45.761088,2.00556705,.00670688,57.0446,27.6301,73.7719,286.9591,0,U,40294,999,8694,0,-.91E-6,0 GPS BIIF-9 (PRN 26),2015-013A,2026-09-11T07:33:56.458656,2.00570877,.01127711,53.1580,200.6179,41.0484,319.7596,0,U,40534,999,8355,0,-.15E-6,0 GPS BIIF-10 (PRN 08),2015-033A,2026-09-10T23:31:43.849632,2.00551728,.01170888,53.9223,263.5429,30.5092,330.1897,0,U,40730,999,8171,0,-.9E-7,0 GPS BIIF-11 (PRN 10),2015-062A,2026-09-12T00:42:05.699232,2.00566941,.01158209,57.0156,27.4729,231.0497,127.9112,0,U,41019,999,7957,0,-.92E-6,0 GPS BIIF-12 (PRN 32),2016-007A,2026-09-11T14:52:06.377664,2.00572750,.00974933,55.5828,86.0329,247.2191,111.8125,0,U,41328,999,7757,0,.7E-7,0 GPS BIII-1 (PRN 04),2018-109A,2026-09-12T00:11:47.723136,2.00565073,.00399894,55.7397,88.7611,196.1580,336.6894,0,U,43873,999,5681,0,.7E-7,0 GPS BIII-2 (PRN 18),2019-056A,2026-09-10T09:48:58.382784,2.00571097,.0065766,55.5893,327.7525,199.8938,163.8410,0,U,44506,999,5178,0,-.85E-6,0 GPS BIII-3 (PRN 23),2020-041A,2026-09-12T04:54:28.876896,2.00566080,.0067432,56.7252,25.5740,205.4040,308.9873,0,U,45854,999,4578,0,-.95E-6,0 GPS BIII-4 (PRN 14),2020-078A,2026-09-11T12:24:33.881184,2.00565053,.00760655,53.9683,207.2798,208.4421,149.1755,0,U,46826,999,4323,0,-.12E-6,0 GPS BIII-5 (PRN 11),2021-054A,2026-09-11T06:14:48.999840,2.00563701,.00284399,55.1268,328.9967,230.5018,127.7457,0,U,48859,999,3847,0,-.9E-6,0 GPS BIII-6 (PRN 28),2023-009A,2026-09-11T11:00:38.553120,2.00565475,.00055413,55.1273,145.1261,333.0185,207.9019,0,U,55268,999,2697,0,.15E-6,0 GPS BIII-7 (PRN 01),2024-242A,2026-09-09T04:39:03.588192,2.00573456,.00191759,54.8068,330.7730,1.5951,67.0727,0,U,62339,999,1294,0,-.88E-6,0 GPS BIII-8 (PRN 21),2025-116A,2026-09-11T14:00:16.256736,2.00569574,.00089637,55.2912,27.6605,334.7276,202.3499,0,U,64202,999,960,0,-.93E-6,0 GPS BIII-9 (PRN 20),2026-017A,2026-09-11T22:44:12.094080,2.00568964,.00207414,55.1491,85.2737,263.1983,96.6286,0,U,67588,999,43335,0,.2E-7,0 GPS BIII-10 (PRN 13),2026-087A,2026-09-11T09:34:24.508128,2.00577427,.00213243,54.9553,204.3810,102.9910,67.7109,0,U,68791,999,256,0,-.12E-6,0